Location: Mohawk View
(42.7837°N, 73.7885°W)
Time: 02:23:10
(UTC+00:00)

ADEOS Rocket - Pass Details

Date: 17 June 2021
Orbit: 858 x 1307 km, 98.7° (Epoch: 02 August)

Event Time Altitude Azimuth Distance (km) Brightness Sun altitude
Exits shadow 06:48:06 - 154° (SSE) 3,572 5.6 -19.0°
Reaches altitude 10° 06:49:04 10° 153° (SSE) 3,229 5.4 -18.9°
Maximum altitude 06:56:26 68° 72° (ENE) 1,265 3.7 -18.3°
Drops below altitude 10° 07:03:11 10° 351° (N) 2,962 6.3 -17.6°
Sets 07:05:37 0° 349° (N) 3,861 6.9 -17.4°
